Location: Unspecified
(0.0000°N, 0.0000°E)
Time: 04:54:51
(UTC+00:00)

Vanguard 2 - Visible Passes

Search period start: 30 August 2016 00:00
Search period end: 09 September 2016 00:00
Orbit: 554 x 2940 km, 32.9° (Epoch: 29 August)

Date Brightness Start Highest point End Pass type
(mag) Time Alt. Az. Time Alt. Az. Time Alt. Az.
30 Aug 11.4 00:59:58 25° NE 00:59:58 25° NE 01:09:48 10° E visible
30 Aug 10.5 03:01:34 37° NNW 03:10:20 63° NE 03:26:38 10° ESE visible
30 Aug 10.3 05:05:54 10° WNW 05:23:31 60° SW 05:37:11 10° SE visible
30 Aug 10.5 18:30:30 10° NW 18:32:09 11° NNW 18:33:59 10° N visible
31 Aug 11.2 01:18:54 32° NE 01:18:54 32° NE 01:30:32 10° E visible
31 Aug 10.3 03:20:29 41° NW 03:29:06 78° NE 03:45:31 10° ESE visible
31 Aug 10.4 05:25:25 10° WNW 05:42:09 47° SW 05:55:13 10° SE visible
31 Aug11.923:36:05ENE23:36:05ENE23:08:01NNWvisible
01 Sep 10.9 01:37:39 41° ENE 01:37:39 41° ENE 01:50:39 10° E visible
01 Sep 10.2 03:39:12 42° WNW 03:47:48 86° SW 04:04:08 10° SE visible
02 Sep 10.6 01:56:12 51° ENE 01:56:12 51° ENE 02:10:16 10° ESE visible
02 Sep 10.2 03:57:44 39° WNW 04:06:29 70° SW 04:22:31 10° SE visible
03 Sep 10.4 02:14:33 63° ENE 02:14:33 63° ENE 02:29:28 10° ESE visible
03 Sep 10.4 04:16:05 33° W 04:25:12 56° SW 04:40:41 10° SE visible
04 Sep 11.8 00:31:13 13° E 00:31:13 13° E 00:32:46 10° E visible
04 Sep 10.2 02:32:43 75° ESE 02:32:43 75° ESE 02:48:18 10° SE visible
04 Sep 10.6 04:34:13 26° W 04:44:03 44° SW 04:58:44 10° SSE visible
05 Sep 11.6 00:49:13 18° E 00:49:13 18° E 00:52:49 10° ESE visible
05 Sep 10.1 02:50:43 75° S 02:50:43 75° S 03:06:52 10° SE visible
05 Sep 10.8 04:52:12 19° W 05:03:03 35° SSW 05:16:42 10° SSE visible
06 Sep 11.4 01:07:03 24° ESE 01:07:03 24° ESE 01:12:21 10° ESE visible
06 Sep 10.2 03:08:32 63° SSW 03:08:32 63° SSW 03:25:13 10° SE visible
06 Sep 11.0 05:10:02 13° WSW 05:22:17 27° SSW 05:34:36 10° SSE visible
07 Sep 11.3 01:24:45 29° ESE 01:24:45 29° ESE 01:31:28 10° ESE visible
07 Sep 10.4 03:26:13 51° SW 03:26:48 51° SSW 03:43:26 10° SE visible
07 Sep 11.2 05:29:41 10° WSW 05:41:48 22° SSW 05:52:31 10° SSE visible
08 Sep 11.1 01:42:18 34° SE 01:42:18 34° SE 01:50:15 10° SE visible
08 Sep 10.6 03:43:46 39° SW 03:45:51 40° SSW 04:01:32 10° SSE visible
